Zurück zum Katalog

CTC-1B

AktivKommunikationSSO
NORAD 66681·PAYLOAD·🇺🇸 United States
Dieser Satellitenname wurde noch nicht durch offizielle Quellen bestätigt.

Gestartet Nov 28, 2025 von Vandenberg Space Force Base

Loading…

Nächste Überflüge (nächste 24 Stunden)

TLE

AktuellSource: Space-Track

Epoche: Sep 14, 2026, 10:27 UTC

1 66681U 25276R   26257.43576168  .00012795  00000-0  49244-3 0  9991
2 66681  97.4039 330.4680 0005903  71.3606 288.8273 15.26496997 44065

Verfolge CTC-1B in Echtzeit mit AllMySat

Download on the App Store